Location: Newark
(48.1500°N, 2.9667°W)
Time: 15:13:31
(UTC+00:00)

Altair - Pass Details

Date: 26 January 2020
Orbit: 1502 x 1682 km, 47.2° (Epoch: 25 February)

Event Time Altitude Azimuth Distance (km) Brightness Sun altitude
Rises 07:20:23 0° 204° (SSW) 4,844 10.1 -5.0°
Reaches altitude 10° 07:23:53 10° 195° (SSW) 3,882 9.7 -4.5°
Maximum altitude 07:32:24 34° 136° (SE) 2,527 9.5 -3.2°
Drops below altitude 10° 07:41:03 10° 77° (ENE) 3,949 10.5 -1.9°
Sets 07:44:36 0° 69° (ENE) 4,938 10.8 -1.3°
